Weather History for Cork, Ireland

Change the Weather History Date:

Saturday, July 20, 2013

  Actual Average Record
Temperature  
Mean Temperature 67 °F -  
Max Temperature 73 °F 65 °F 73 °F (2013)
Min Temperature 61 °F 52 °F 47 °F (2012)
Cooling Degree Days 2    
Growing Degree Days 17 (Base 50)    
Moisture  
Dew Point 59 °F    
Average Humidity 75    
Maximum Humidity 94    
Minimum Humidity 57    
Precipitation  
Precipitation 0.00 in 0.11 in - ()
Sea Level Pressure  
Sea Level Pressure 30.18 in    
Wind  
Wind Speed 9 mph ()    
Max Wind Speed 17 mph    
Max Gust Speed -    
Visibility 6.4 miles    
Events      
Averages and records for this station are not official NWS values.
T = Trace of Precipitation, MM = Missing Value Source: Averaged Metar Reports

Daily Weather History Graph

Daily Weather History Graph

Search for Another Location

Airport:

Trip Planner

Search our weather history database for the weather conditions in past years. The results will help you decide how hot, cold, wet, or windy it might be!

Date:

Astronomy

Jul. 20, 2013 Rise Set
Actual Time 5:39 AM IST 9:40 PM IST
Civil Twilight 4:55 AM IST 10:24 PM IST
Nautical Twilight 3:52 AM IST 11:26 PM IST
Astronomical Twilight 2:12 AM IST 1:07 AM IST
Moon 7:29 PM IST (7/20) 3:06 AM IST (7/20)
Length of Visible Light 17h 29m
Length of Day
16h 01m
Waxing Gibbous, 92% of the Moon is Illuminated
Jul 20
Waxing Gibbous
Jul 22
Full
Jul 29
Last Quarter
Aug 6
New
Aug 14
First Quarter

Hourly Weather History & Observations

Time (IST) Temp. Dew Point Humidity Pressure Visibility Wind Dir Wind Speed Gust Speed Precip Events Conditions
12:00 AM 64.4 °F 59.0 °F 83% 30.21 in 6.2 mi East 6.9 mph - N/A   Partly Cloudy
12:30 AM 64.4 °F 59.0 °F 83% 30.21 in 6.2 mi East 5.8 mph - N/A   Partly Cloudy
1:00 AM 62 °F 60 °F 89% 30.23 in 25 mi East 6.7 mph - -   Scattered Clouds
1:00 AM 62.6 °F 59.0 °F 88% 30.21 in 6.2 mi East 5.8 mph - N/A   Partly Cloudy
1:30 AM 62.6 °F 60.8 °F 94% 30.21 in 6.2 mi East 6.9 mph - N/A   Partly Cloudy
2:00 AM 62.6 °F 60.8 °F 94% 30.21 in 6.2 mi East 8.1 mph - N/A   Partly Cloudy
2:30 AM 62.6 °F 60.8 °F 94% 30.21 in 6.2 mi East 6.9 mph - N/A   Partly Cloudy
3:00 AM 62.6 °F 59.0 °F 88% 30.21 in 6.2 mi East 8.1 mph - N/A   Partly Cloudy
3:30 AM 62.6 °F 59.0 °F 88% 30.21 in 6.2 mi East 6.9 mph - N/A   Partly Cloudy
4:00 AM 62.6 °F 59.0 °F 88% 30.21 in 6.2 mi East 6.9 mph - N/A   Partly Cloudy
4:30 AM 62.6 °F 59.0 °F 88% 30.18 in 6.2 mi ENE 6.9 mph - N/A   Partly Cloudy
5:00 AM 62.6 °F 59.0 °F 88% 30.18 in 6.2 mi East 5.8 mph - N/A   Partly Cloudy
5:30 AM 62.6 °F 59.0 °F 88% 30.18 in 6.2 mi East 9.2 mph - N/A   Partly Cloudy
6:00 AM 62.6 °F 59.0 °F 88% 30.18 in 6.2 mi East 10.4 mph - N/A   Partly Cloudy
6:30 AM 62.6 °F 57.2 °F 82% 30.18 in 6.2 mi East 9.2 mph - N/A   Partly Cloudy
7:00 AM 64 °F 58 °F 75% 30.19 in 16 mi East 8.9 mph - -   Scattered Clouds
7:00 AM 64.4 °F 57.2 °F 77% 30.18 in 6.2 mi East 8.1 mph - N/A   Partly Cloudy
7:30 AM 64.4 °F 57.2 °F 77% 30.18 in 6.2 mi NE 6.9 mph - N/A   Partly Cloudy
8:00 AM 66.2 °F 59.0 °F 78% 30.18 in 6.2 mi NE 6.9 mph - N/A   Partly Cloudy
8:30 AM 66.2 °F 59.0 °F 78% 30.18 in 6.2 mi East 10.4 mph - N/A   Partly Cloudy
9:00 AM 68.0 °F 60.8 °F 78% 30.18 in - East 13.8 mph - N/A   Clear
9:30 AM 69.8 °F 62.6 °F 78% 30.18 in - East 15.0 mph - N/A   Clear
10:00 AM 69.8 °F 62.6 °F 78% 30.18 in 6.2 mi East 13.8 mph - N/A   Partly Cloudy
10:30 AM 69.8 °F 62.6 °F 78% 30.18 in 6.2 mi East 11.5 mph - N/A   Partly Cloudy
11:00 AM 69.8 °F 62.6 °F 78% 30.18 in 6.2 mi SE 12.7 mph - N/A   Partly Cloudy
11:30 AM 73.4 °F 62.6 °F 69% 30.18 in 6.2 mi SE 12.7 mph - N/A   Partly Cloudy
12:00 PM 73.4 °F 62.6 °F 69% 30.18 in 6.2 mi SE 13.8 mph - N/A   Partly Cloudy
12:30 PM 73.4 °F 59.0 °F 61% 30.21 in 6.2 mi ESE 13.8 mph - N/A   Partly Cloudy
1:00 PM 72 °F 60 °F 57% 30.19 in 25 mi SE 15.7 mph - -   Scattered Clouds
1:00 PM 71.6 °F 60.8 °F 69% 30.18 in 6.2 mi SE 15.0 mph - N/A   Partly Cloudy
1:30 PM 73.4 °F 59.0 °F 61% 30.18 in 6.2 mi ESE 13.8 mph - N/A   Partly Cloudy
2:00 PM 71.6 °F 59.0 °F 64% 30.18 in 6.2 mi ESE 12.7 mph - N/A   Scattered Clouds
2:30 PM 73.4 °F 60.8 °F 65% 30.18 in 6.2 mi East 15.0 mph - N/A   Scattered Clouds
3:00 PM 71.6 °F 59.0 °F 64% 30.18 in 6.2 mi ESE 13.8 mph - N/A   Scattered Clouds
3:30 PM 73.4 °F 57.2 °F 57% 30.18 in 6.2 mi East 16.1 mph - N/A   Scattered Clouds
4:00 PM 71.6 °F 59.0 °F 64% 30.18 in 6.2 mi East 16.1 mph - N/A   Scattered Clouds
4:30 PM 71.6 °F 59.0 °F 64% 30.18 in 6.2 mi ESE 15.0 mph - N/A   Scattered Clouds
5:00 PM 71.6 °F 57.2 °F 60% 30.15 in 6.2 mi ESE 17.3 mph - N/A   Partly Cloudy
5:30 PM 71.6 °F 59.0 °F 64% 30.15 in 6.2 mi ESE 16.1 mph - N/A   Partly Cloudy
6:00 PM 71.6 °F 59.0 °F 64% 30.15 in 6.2 mi ESE 17.3 mph - N/A   Scattered Clouds
6:30 PM 69.8 °F 57.2 °F 64% 30.15 in - ESE 15.0 mph - N/A   Scattered Clouds
7:00 PM 71 °F 59 °F 58% 30.14 in 44 mi ESE 13.4 mph - -   Scattered Clouds
7:00 PM 71.6 °F 59.0 °F 64% 30.15 in 6.2 mi ESE 12.7 mph - N/A   Partly Cloudy
7:30 PM 69.8 °F 59.0 °F 68% 30.15 in 6.2 mi ESE 13.8 mph - N/A   Partly Cloudy
8:00 PM 69.8 °F 59.0 °F 68% 30.15 in 6.2 mi East 12.7 mph - N/A   Scattered Clouds
8:30 PM 68.0 °F 59.0 °F 73% 30.15 in 6.2 mi East 11.5 mph - N/A   Partly Cloudy
9:00 PM 68.0 °F 59.0 °F 73% 30.15 in 6.2 mi East 6.9 mph - N/A   Partly Cloudy
9:30 PM 66.2 °F 59.0 °F 78% 30.15 in 6.2 mi East 8.1 mph - N/A   Partly Cloudy
10:00 PM 66.2 °F 59.0 °F 78% 30.15 in 6.2 mi East 9.2 mph - N/A   Partly Cloudy
10:30 PM 64.4 °F 59.0 °F 83% 30.15 in 6.2 mi East 5.8 mph - N/A   Partly Cloudy
11:00 PM 64.4 °F 59.0 °F 83% 30.15 in 6.2 mi East 6.9 mph - N/A   Partly Cloudy
11:30 PM 64.4 °F 57.2 °F 77% 30.15 in 6.2 mi East 9.2 mph - N/A   Partly Cloudy